THY5ZT UGSB-LTFM

Flight info

Callsign THY5ZT
Flight time N/A
Altitude 38000
Route IZERO UL21 ATCEF UM10 HAKAN UN644 GUMRU UT315 NUGBA
Aircraft B738/M-SDE1FGHIJ1RWXYZ/LB1

Departure

Time 2026-05-06 20:12
Airport Alexander Kartveli Batumi International Airport (UGSB)

Arrival

Time N/A
Airport İstanbul Airport (LTFM)
Time Latitude Longitude Altitude Speed Heading
2026-05-06 19:45 41.60641 41.61004 113 ft 0 kts 91°
2026-05-06 20:03 41.60641 41.60999 113 ft 2 kts 91°
2026-05-06 20:03 41.60642 41.60977 113 ft 3 kts 91°
2026-05-06 20:03 41.60641 41.60951 113 ft 3 kts 68°
2026-05-06 20:04 41.60641 41.60941 113 ft 3 kts 354°
2026-05-06 20:04 41.60624 41.60946 113 ft 3 kts 345°
2026-05-06 20:04 41.60606 41.60953 113 ft 3 kts 336°
2026-05-06 20:04 41.60592 41.60968 113 ft 3 kts 306°
2026-05-06 20:05 41.60581 41.60986 113 ft 1 kts 317°
2026-05-06 20:05 41.60576 41.60992 113 ft 0 kts 317°
2026-05-06 20:08 41.60587 41.60989 113 ft 2 kts 21°
2026-05-06 20:09 41.60590 41.61006 113 ft 2 kts 118°
2026-05-06 20:09 41.60559 41.61029 113 ft 8 kts 152°
2026-05-06 20:09 41.60508 41.61079 113 ft 9 kts 135°
2026-05-06 20:09 41.60452 41.61087 113 ft 9 kts 197°
2026-05-06 20:10 41.60396 41.61064 113 ft 8 kts 197°
2026-05-06 20:10 41.60343 41.61042 113 ft 8 kts 197°
2026-05-06 20:10 41.60292 41.61050 113 ft 7 kts 152°
2026-05-06 20:10 41.60243 41.61067 113 ft 7 kts 168°
2026-05-06 20:11 41.60227 41.61114 113 ft 7 kts 46°
2026-05-06 20:11 41.60265 41.61094 113 ft 7 kts 311°
2026-05-06 20:11 41.60269 41.61088 113 ft 0 kts 311°
2026-05-06 20:11 41.60306 41.61031 113 ft 21 kts 311°
2026-05-06 20:12 41.60560 41.60644 113 ft 91 kts 310°
2026-05-06 20:12 41.60900 41.60119 113 ft 133 kts 311°
2026-05-06 20:12 41.61630 41.59001 243 ft 177 kts 311°
2026-05-06 20:12 41.62462 41.57722 977 ft 184 kts 311°
2026-05-06 20:13 41.63284 41.56458 1974 ft 177 kts 311°
2026-05-06 20:13 41.64033 41.55184 2884 ft 174 kts 301°
2026-05-06 20:13 41.64434 41.53621 3540 ft 185 kts 278°
2026-05-06 20:13 41.64522 41.51812 4035 ft 206 kts 271°
2026-05-06 20:14 41.64565 41.49783 4398 ft 231 kts 271°
2026-05-06 20:14 41.64621 41.47509 4719 ft 259 kts 271°
2026-05-06 20:14 41.64688 41.45053 5545 ft 265 kts 272°
2026-05-06 20:14 41.64747 41.42591 6548 ft 268 kts 271°
2026-05-06 20:15 41.64816 41.40068 7404 ft 274 kts 274°
2026-05-06 20:15 41.64947 41.37505 8288 ft 279 kts 273°
2026-05-06 20:15 41.65047 41.34896 9166 ft 283 kts 272°
2026-05-06 20:15 41.65122 41.32255 10046 ft 287 kts 272°
2026-05-06 20:16 41.65184 41.29570 10885 ft 292 kts 272°
2026-05-06 20:16 41.65241 41.26836 11476 ft 306 kts 272°
2026-05-06 20:16 41.65301 41.23858 11864 ft 327 kts 271°
2026-05-06 20:16 41.65362 41.20771 12243 ft 345 kts 271°
2026-05-06 20:17 41.65430 41.17527 12907 ft 353 kts 271°
2026-05-06 20:17 41.65505 41.14231 13695 ft 357 kts 272°
2026-05-06 20:17 41.65497 41.10901 14460 ft 361 kts 266°
2026-05-06 20:17 41.65223 41.07549 15226 ft 364 kts 261°
2026-05-06 20:18 41.64806 41.04188 15955 ft 368 kts 259°
2026-05-06 20:18 41.64357 41.00807 16675 ft 372 kts 259°
2026-05-06 20:18 41.63904 40.97394 17378 ft 375 kts 259°
2026-05-06 20:18 41.63447 40.93937 18061 ft 379 kts 259°
2026-05-06 20:19 41.62986 40.90451 18721 ft 383 kts 259°
2026-05-06 20:19 41.62521 40.86936 19371 ft 386 kts 259°
2026-05-06 20:19 41.62050 40.83381 19986 ft 390 kts 259°
2026-05-06 20:19 41.61576 40.79806 20610 ft 393 kts 259°
2026-05-06 20:20 41.61096 40.76190 21198 ft 397 kts 259°
2026-05-06 20:20 41.60611 40.72542 21785 ft 400 kts 259°
2026-05-06 20:20 41.60124 40.68874 22333 ft 404 kts 259°
2026-05-06 20:20 41.59706 40.65152 22880 ft 407 kts 263°
2026-05-06 20:21 41.59552 40.61349 23399 ft 411 kts 269°
2026-05-06 20:21 41.59635 40.57517 23905 ft 415 kts 272°
2026-05-06 20:21 41.59828 40.53648 24397 ft 419 kts 273°
2026-05-06 20:21 41.60039 40.49764 24872 ft 422 kts 273°
2026-05-06 20:22 41.60242 40.45832 25336 ft 425 kts 273°
2026-05-06 20:22 41.60440 40.41881 25784 ft 428 kts 273°
2026-05-06 20:22 41.60635 40.37904 26205 ft 431 kts 272°
2026-05-06 20:22 41.60828 40.33897 26629 ft 434 kts 272°
2026-05-06 20:23 41.61020 40.29850 27038 ft 437 kts 272°
2026-05-06 20:23 41.61212 40.25784 27432 ft 440 kts 272°
2026-05-06 20:23 41.61402 40.21697 27817 ft 443 kts 272°
2026-05-06 20:23 41.61594 40.17579 28190 ft 445 kts 273°
2026-05-06 20:24 41.61818 40.13432 28555 ft 448 kts 273°
2026-05-06 20:24 41.62033 40.09272 28908 ft 450 kts 273°
2026-05-06 20:24 41.62239 40.05087 29229 ft 453 kts 273°
2026-05-06 20:24 41.62444 40.00862 29555 ft 456 kts 273°
2026-05-06 20:25 41.62671 39.96623 29846 ft 459 kts 273°
2026-05-06 20:25 41.62875 39.92361 30159 ft 461 kts 273°
2026-05-06 20:25 41.63069 39.88070 30475 ft 463 kts 272°
2026-05-06 20:25 41.63254 39.83826 30820 ft 464 kts 272°
2026-05-06 20:26 41.63438 39.79540 31254 ft 462 kts 272°
2026-05-06 20:26 41.63620 39.75253 31677 ft 461 kts 272°
2026-05-06 20:26 41.63799 39.70991 32067 ft 460 kts 272°
2026-05-06 20:26 41.63979 39.66722 32466 ft 459 kts 272°
2026-05-06 20:27 41.64158 39.62475 32856 ft 458 kts 272°
2026-05-06 20:27 41.64336 39.58235 33250 ft 456 kts 272°
2026-05-06 20:27 41.64512 39.54002 33603 ft 456 kts 272°
2026-05-06 20:27 41.64683 39.49773 33982 ft 455 kts 272°
2026-05-06 20:28 41.64850 39.45557 34325 ft 454 kts 272°
2026-05-06 20:28 41.65015 39.41333 34643 ft 454 kts 272°
2026-05-06 20:28 41.65177 39.37133 35010 ft 453 kts 272°
2026-05-06 20:28 41.65337 39.32923 35304 ft 453 kts 272°
2026-05-06 20:29 41.65495 39.28726 35634 ft 452 kts 272°
2026-05-06 20:29 41.65652 39.24534 35934 ft 452 kts 272°
2026-05-06 20:29 41.65807 39.20333 36211 ft 452 kts 272°
2026-05-06 20:29 41.65960 39.16138 36496 ft 452 kts 272°
2026-05-06 20:30 41.66115 39.11943 36770 ft 452 kts 272°
2026-05-06 20:30 41.66483 39.03561 37350 ft 450 kts 272°
2026-05-06 20:30 41.66653 38.99383 37585 ft 451 kts 272°
2026-05-06 20:31 41.66816 38.95196 37840 ft 451 kts 272°
2026-05-06 20:31 41.66974 38.91004 38087 ft 451 kts 272°
2026-05-06 20:31 41.67130 38.86812 38188 ft 453 kts 272°
2026-05-06 20:32 41.67433 38.78399 38195 ft 452 kts 272°
2026-05-06 20:32 41.67726 38.70070 38196 ft 450 kts 272°
2026-05-06 20:33 41.68016 38.61637 38196 ft 452 kts 272°
2026-05-06 20:33 41.68296 38.53292 38196 ft 452 kts 272°
2026-05-06 20:34 41.68572 38.44890 38196 ft 452 kts 272°
2026-05-06 20:34 41.68842 38.36479 38194 ft 453 kts 272°
2026-05-06 20:35 41.69106 38.28066 38195 ft 453 kts 272°
2026-05-06 20:35 41.69365 38.19632 38194 ft 454 kts 272°
2026-05-06 20:36 41.69617 38.11192 38194 ft 454 kts 272°
2026-05-06 20:36 41.69902 38.02766 38190 ft 454 kts 272°
2026-05-06 20:37 41.70142 37.94332 38187 ft 454 kts 272°
2026-05-06 20:37 41.70362 37.85897 38186 ft 454 kts 272°
2026-05-06 20:38 41.70576 37.77461 38188 ft 454 kts 272°
2026-05-06 20:38 41.70791 37.69016 38184 ft 454 kts 272°
2026-05-06 20:39 41.70998 37.60583 38183 ft 454 kts 272°
2026-05-06 20:39 41.71191 37.52153 38181 ft 452 kts 272°
2026-05-06 20:40 41.71374 37.43727 38180 ft 453 kts 272°
2026-05-06 20:40 41.71549 37.35310 38178 ft 452 kts 272°
2026-05-06 20:41 41.71716 37.26905 38177 ft 452 kts 272°
2026-05-06 20:41 41.71890 37.18492 38176 ft 452 kts 272°
2026-05-06 20:42 41.72117 37.10090 38174 ft 451 kts 272°
2026-05-06 20:42 41.72308 37.01704 38172 ft 451 kts 272°
2026-05-06 20:43 41.72479 36.93386 38172 ft 450 kts 272°
2026-05-06 20:43 41.72641 36.84999 38172 ft 451 kts 272°
2026-05-06 20:44 41.72794 36.76610 38171 ft 451 kts 272°
2026-05-06 20:44 41.72941 36.68213 38170 ft 451 kts 272°
2026-05-06 20:45 41.73081 36.59823 38170 ft 451 kts 272°
2026-05-06 20:45 41.73215 36.51417 38164 ft 452 kts 272°
2026-05-06 20:46 41.73343 36.43007 38159 ft 452 kts 272°
2026-05-06 20:46 41.73465 36.34587 38158 ft 452 kts 272°
2026-05-06 20:47 41.73581 36.26173 38156 ft 452 kts 272°
2026-05-06 20:47 41.73690 36.17746 38154 ft 453 kts 272°
2026-05-06 20:48 41.73794 36.09322 38152 ft 453 kts 272°
2026-05-06 20:48 41.73891 36.00891 38150 ft 453 kts 272°
2026-05-06 20:49 41.73983 35.92461 38148 ft 453 kts 272°
2026-05-06 20:49 41.74068 35.84023 38146 ft 453 kts 272°
2026-05-06 20:50 41.74147 35.75607 38145 ft 452 kts 272°
2026-05-06 20:50 41.74220 35.67185 38143 ft 452 kts 272°
2026-05-06 20:51 41.74286 35.58777 38142 ft 451 kts 272°
2026-05-06 20:51 41.74347 35.50376 38135 ft 451 kts 272°
2026-05-06 20:52 41.74401 35.41991 38133 ft 450 kts 272°
2026-05-06 20:52 41.74448 35.33669 38134 ft 450 kts 272°
2026-05-06 20:53 41.74490 35.25298 38135 ft 449 kts 272°
2026-05-06 20:53 41.74526 35.16945 38136 ft 448 kts 272°
2026-05-06 20:54 41.74556 35.08592 38137 ft 449 kts 272°
2026-05-06 20:54 41.74600 35.00250 38137 ft 447 kts 272°
2026-05-06 20:55 41.74639 34.91925 38134 ft 448 kts 272°
2026-05-06 20:55 41.74642 34.83585 38133 ft 447 kts 272°
2026-05-06 20:56 41.74633 34.75260 38132 ft 447 kts 272°
2026-05-06 20:56 41.74621 34.66928 38129 ft 447 kts 272°
2026-05-06 20:57 41.74610 34.58596 38125 ft 447 kts 272°
2026-05-06 20:57 41.74586 34.50274 38121 ft 447 kts 272°
2026-05-06 20:58 41.74551 34.41944 38117 ft 448 kts 271°
2026-05-06 20:58 41.74507 34.33611 38112 ft 448 kts 271°
2026-05-06 20:59 41.74458 34.25265 38107 ft 448 kts 271°
2026-05-06 20:59 41.74402 34.16930 38103 ft 448 kts 271°
2026-05-06 21:00 41.74384 34.08589 38099 ft 448 kts 272°
2026-05-06 21:00 41.74372 34.01657 38096 ft 448 kts 272°
2026-05-06 21:01 41.74322 33.91962 38094 ft 448 kts 272°
2026-05-06 21:01 41.74274 33.84980 38092 ft 448 kts 271°
2026-05-06 21:02 41.74208 33.76649 38091 ft 447 kts 271°
2026-05-06 21:02 41.74136 33.68328 38092 ft 447 kts 271°
2026-05-06 21:03 41.74058 33.60007 38092 ft 446 kts 271°
2026-05-06 21:03 41.73973 33.51701 38092 ft 446 kts 271°
2026-05-06 21:04 41.73906 33.43401 38092 ft 445 kts 272°
2026-05-06 21:04 41.73829 33.35172 38092 ft 445 kts 271°
2026-05-06 21:05 41.73717 33.26900 38093 ft 444 kts 271°
2026-05-06 21:05 41.73596 33.18635 38094 ft 444 kts 271°
2026-05-06 21:06 41.73471 33.10380 38096 ft 443 kts 271°
2026-05-06 21:06 41.73347 33.02135 38097 ft 443 kts 271°
2026-05-06 21:07 41.73247 32.93897 38099 ft 442 kts 272°
2026-05-06 21:07 41.73137 32.85668 38100 ft 442 kts 272°
2026-05-06 21:08 41.73021 32.77442 38102 ft 442 kts 272°
2026-05-06 21:08 41.72946 32.69229 38103 ft 441 kts 272°
2026-05-06 21:09 41.72862 32.61007 38105 ft 441 kts 272°
2026-05-06 21:09 41.72733 32.52791 38106 ft 442 kts 272°
2026-05-06 21:10 41.72592 32.44580 38107 ft 441 kts 272°
2026-05-06 21:10 41.72448 32.36362 38108 ft 441 kts 272°
2026-05-06 21:11 41.71953 32.28155 38110 ft 446 kts 263°
2026-05-06 21:11 41.70591 32.20034 38110 ft 448 kts 259°
2026-05-06 21:12 41.69104 32.11994 38111 ft 448 kts 260°
2026-05-06 21:12 41.67605 32.03851 38111 ft 448 kts 260°
2026-05-06 21:13 41.66126 31.95815 38112 ft 448 kts 260°
2026-05-06 21:13 41.64627 31.87692 38113 ft 447 kts 260°
2026-05-06 21:14 41.63178 31.79615 38112 ft 447 kts 260°
2026-05-06 21:14 41.61753 31.71587 38113 ft 446 kts 260°
2026-05-06 21:15 41.60273 31.63540 38113 ft 446 kts 260°
2026-05-06 21:15 41.58766 31.55502 38113 ft 446 kts 259°
2026-05-06 21:16 41.57252 31.47467 38113 ft 446 kts 259°
2026-05-06 21:16 41.55785 31.39421 37891 ft 446 kts 263°
2026-05-06 21:16 41.55372 31.35342 37642 ft 441 kts 269°
2026-05-06 21:17 41.55282 31.31268 37393 ft 438 kts 274°
2026-05-06 21:17 41.55400 31.27219 37051 ft 436 kts 277°
2026-05-06 21:17 41.55633 31.23199 36415 ft 434 kts 278°
2026-05-06 21:17 41.55889 31.19182 35751 ft 434 kts 278°
2026-05-06 21:18 41.56142 31.15154 35064 ft 435 kts 278°
2026-05-06 21:18 41.56394 31.11131 34366 ft 436 kts 278°
2026-05-06 21:18 41.56680 31.07107 33653 ft 436 kts 279°
2026-05-06 21:18 41.56960 31.03074 32921 ft 437 kts 279°
2026-05-06 21:19 41.57220 30.99034 32299 ft 435 kts 278°
2026-05-06 21:19 41.57468 30.95018 31756 ft 432 kts 278°
2026-05-06 21:19 41.57709 30.91039 31221 ft 428 kts 278°
2026-05-06 21:19 41.57945 30.87090 30691 ft 425 kts 278°
2026-05-06 21:20 41.58178 30.83169 30169 ft 422 kts 278°
2026-05-06 21:20 41.58409 30.79273 29656 ft 419 kts 278°
2026-05-06 21:20 41.58638 30.75402 29153 ft 417 kts 278°
2026-05-06 21:20 41.58867 30.71558 28654 ft 414 kts 278°
2026-05-06 21:21 41.59092 30.67741 28160 ft 411 kts 278°
2026-05-06 21:21 41.59289 30.63954 27677 ft 407 kts 277°
2026-05-06 21:21 41.59434 30.60187 27198 ft 404 kts 276°
2026-05-06 21:21 41.59569 30.56435 26721 ft 405 kts 276°
2026-05-06 21:22 41.59702 30.52682 26245 ft 405 kts 276°
2026-05-06 21:22 41.59832 30.48972 25772 ft 404 kts 276°
2026-05-06 21:22 41.59962 30.45242 25298 ft 401 kts 276°
2026-05-06 21:22 41.60091 30.41536 24828 ft 398 kts 276°
2026-05-06 21:23 41.60220 30.37807 24353 ft 395 kts 276°
2026-05-06 21:23 41.60345 30.34201 23895 ft 393 kts 276°
2026-05-06 21:23 41.60723 30.30630 23432 ft 386 kts 289°
2026-05-06 21:23 41.61780 30.27380 22991 ft 379 kts 303°
2026-05-06 21:24 41.63319 30.24544 22571 ft 375 kts 310°
2026-05-06 21:24 41.64996 30.21888 22168 ft 373 kts 314°
2026-05-06 21:24 41.66799 30.19412 21774 ft 371 kts 316°
2026-05-06 21:24 41.68621 30.16976 21383 ft 369 kts 316°
2026-05-06 21:25 41.70408 30.14529 20998 ft 367 kts 315°
2026-05-06 21:25 41.72176 30.12062 20613 ft 366 kts 315°
2026-05-06 21:25 41.73740 30.09388 20227 ft 367 kts 301°
2026-05-06 21:25 41.74617 30.06180 19865 ft 369 kts 282°
2026-05-06 21:26 41.74682 30.02746 19508 ft 371 kts 264°
2026-05-06 21:26 41.73932 29.99443 19116 ft 374 kts 246°
2026-05-06 21:26 41.72446 29.96629 18830 ft 370 kts 228°
2026-05-06 21:26 41.70517 29.94374 18524 ft 366 kts 219°
2026-05-06 21:27 41.68577 29.92232 18151 ft 358 kts 224°
2026-05-06 21:27 41.66876 29.89846 17762 ft 350 kts 232°
2026-05-06 21:27 41.65378 29.87339 17309 ft 341 kts 233°
2026-05-06 21:27 41.63898 29.84893 16805 ft 336 kts 233°
2026-05-06 21:28 41.62642 29.82312 16319 ft 330 kts 247°
2026-05-06 21:28 41.61978 29.79402 15974 ft 324 kts 262°
2026-05-06 21:28 41.61716 29.76439 15717 ft 319 kts 268°
2026-05-06 21:28 41.61603 29.73501 15471 ft 314 kts 270°
2026-05-06 21:29 41.61528 29.70590 15232 ft 313 kts 270°
2026-05-06 21:29 41.61436 29.67685 14994 ft 313 kts 270°
2026-05-06 21:29 41.61335 29.64783 14758 ft 312 kts 270°
2026-05-06 21:29 41.61232 29.61891 14524 ft 311 kts 270°
2026-05-06 21:30 41.61041 29.59022 14284 ft 312 kts 260°
2026-05-06 21:30 41.60195 29.56344 14039 ft 316 kts 239°
2026-05-06 21:30 41.58809 29.54103 13762 ft 318 kts 227°
2026-05-06 21:30 41.57159 29.52137 13481 ft 318 kts 221°
2026-05-06 21:31 41.55410 29.50286 13200 ft 316 kts 220°
2026-05-06 21:31 41.53724 29.48473 12929 ft 315 kts 221°
2026-05-06 21:31 41.52036 29.46603 12657 ft 315 kts 222°
2026-05-06 21:31 41.50339 29.44696 12293 ft 316 kts 222°
2026-05-06 21:32 41.48691 29.42837 12010 ft 313 kts 222°
2026-05-06 21:32 41.45399 29.39118 11466 ft 308 kts 222°
2026-05-06 21:32 41.43772 29.37280 11199 ft 305 kts 221°
2026-05-06 21:33 41.42101 29.35561 10937 ft 303 kts 218°
2026-05-06 21:33 41.40393 29.33952 10711 ft 298 kts 217°
2026-05-06 21:33 41.38713 29.32350 10453 ft 295 kts 218°
2026-05-06 21:33 41.37059 29.30753 10188 ft 293 kts 218°
2026-05-06 21:34 41.35373 29.29258 9973 ft 289 kts 212°
2026-05-06 21:34 41.33611 29.27991 9748 ft 285 kts 208°
2026-05-06 21:34 41.31842 29.26851 9540 ft 281 kts 207°
2026-05-06 21:34 41.30084 29.25771 9339 ft 276 kts 207°
2026-05-06 21:35 41.28351 29.24694 9143 ft 273 kts 207°
2026-05-06 21:35 41.26643 29.23623 8953 ft 270 kts 207°
2026-05-06 21:35 41.24947 29.22551 8764 ft 270 kts 207°
2026-05-06 21:35 41.23258 29.21479 8576 ft 269 kts 207°
2026-05-06 21:36 41.21576 29.20408 8388 ft 268 kts 207°
2026-05-06 21:36 41.19907 29.19333 8201 ft 266 kts 208°
2026-05-06 21:36 41.18246 29.18255 8016 ft 265 kts 208°
2026-05-06 21:36 41.16593 29.17185 7830 ft 264 kts 208°
2026-05-06 21:37 41.14942 29.16122 7645 ft 263 kts 208°
2026-05-06 21:37 41.13291 29.15064 7461 ft 262 kts 208°
2026-05-06 21:37 41.11652 29.14015 7278 ft 261 kts 208°
2026-05-06 21:37 41.10017 29.12970 7095 ft 260 kts 208°
2026-05-06 21:38 41.08935 29.12280 6976 ft 260 kts 208°